^^
 
Daily Summary for February 03, 2023 Units:  English    Metric   Both
Daily Weekly Monthly Yearly Custom
  Current: High: Low: Average:
Temperature: 48.2 °F 48.2 °F 46.7 °F 47.5 °F
Dew Point: 25.0 °F 29.2 °F 24.0 °F 25.3 °F
Humidity: 40% 50% 39% 42%
Wind Speed: 7mph 11mph 0mph 5.3mph
Wind Gust: 6mph 10mph - -
WindWSW - - WSW
Pressure: 30.3 in 30.3 in 30.3 in -
Precipitation: 0.000 in      
Historical Graphs
 
 
Tabular Data for February 03, 2023
Time Temperature Dew Point Pressure Wind Wind Speed Wind Gust Humidity Rainfall Rate (Hourly) solar
00:04 47.0 °F 28.8 °F 30.3 in SW 4 mph 2 mph 49% 0.000 in 0.00 W/m2
00:09 47.0 °F 28.3 °F 30.3 in SW 2 mph 3 mph 48% 0.000 in 0.00 W/m2
00:14 46.9 °F 28.2 °F 30.3 in Calm   2 mph 48% 0.000 in 0.00 W/m2
00:19 46.9 °F 29.2 °F 30.3 in Calm     50% 0.000 in 0.00 W/m2
00:24 46.8 °F 28.1 °F 30.3 in SW 6 mph 3 mph 48% 0.000 in 0.00 W/m2
00:29 46.7 °F 25.4 °F 30.3 in SW 4 mph 6 mph 43% 0.000 in 0.00 W/m2
00:34 46.7 °F 24.8 °F 30.3 in SW 9 mph 5 mph 42% 0.000 in 0.00 W/m2
00:39 46.8 °F 24.8 °F 30.3 in SW 6 mph 9 mph 42% 0.000 in 0.00 W/m2
00:44 46.9 °F 24.4 °F 30.3 in WSW 6 mph 3 mph 41% 0.000 in 0.00 W/m2
00:49 46.9 °F 24.4 °F 30.3 in WSW 4 mph 6 mph 41% 0.000 in 0.00 W/m2
00:54 47.0 °F 24.5 °F 30.3 in SW 4 mph 3 mph 41% 0.000 in 0.00 W/m2
00:59 47.1 °F 24.6 °F 30.3 in WSW 7 mph 3 mph 41% 0.000 in 0.00 W/m2
01:04 47.2 °F 25.2 °F 30.3 in SW 4 mph 7 mph 42% 0.000 in 0.00 W/m2
01:09 47.3 °F 24.7 °F 30.3 in WSW 6 mph 6 mph 41% 0.000 in 0.00 W/m2
01:14 47.4 °F 24.3 °F 30.3 in WSW 11 mph 9 mph 40% 0.000 in 0.00 W/m2
01:19 47.5 °F 24.3 °F 30.3 in WSW 4 mph 10 mph 40% 0.000 in 0.00 W/m2
01:24 47.6 °F 24.3 °F 30.3 in West 11 mph 4 mph 40% 0.000 in 0.00 W/m2
01:29 47.6 °F 24.4 °F 30.3 in WSW 9 mph 10 mph 40% 0.000 in 0.00 W/m2
01:34 47.8 °F 24.0 °F 30.3 in SW 9 mph 9 mph 39% 0.000 in 0.00 W/m2
01:39 48.0 °F 24.2 °F 30.3 in SW 4 mph 9 mph 39% 0.000 in 0.00 W/m2
01:44 48.1 °F 24.9 °F 30.3 in SW 6 mph 3 mph 40% 0.000 in 0.00 W/m2
01:49 48.1 °F 24.9 °F 30.3 in SW 4 mph 6 mph 40% 0.000 in 0.00 W/m2
01:54 48.1 °F 24.9 °F 30.3 in SW 4 mph 3 mph 40% 0.000 in 0.00 W/m2
01:59 48.1 °F 24.9 °F 30.3 in SW 2 mph 3 mph 40% 0.000 in 0.00 W/m2
02:04 48.1 °F 24.9 °F 30.3 in SW 2 mph 2 mph 40% 0.000 in 0.00 W/m2
02:09 48.0 °F 24.8 °F 30.3 in West 7 mph 2 mph 40% 0.000 in 0.00 W/m2
02:14 48.0 °F 24.8 °F 30.3 in West 5 mph 7 mph 40% 0.000 in 0.00 W/m2
02:19 48.0 °F 24.8 °F 30.3 in West 6 mph 6 mph 40% 0.000 in 0.00 W/m2
02:24 48.0 °F 24.8 °F 30.3 in West 4 mph 6 mph 40% 0.000 in 0.00 W/m2
02:29 48.1 °F 24.9 °F 30.3 in WSW 6 mph 3 mph 40% 0.000 in 0.00 W/m2
02:34 48.1 °F 24.9 °F 30.3 in West 7 mph 6 mph 40% 0.000 in 0.00 W/m2
02:39 48.1 °F 24.9 °F 30.3 in WSW 4 mph 7 mph 40% 0.000 in 0.00 W/m2
02:44 48.2 °F 25.0 °F 30.3 in WSW 7 mph 6 mph 40% 0.000 in 0.00 W/m2
El Dorado Weather
Compliments of Weather Underground - 2 mb